period_start,C,m1,H,J0,J1,J2,J3,J4,J5,JA,JB,JC,JD,JJ,JK,JN,#
2014-11-27 00:02:50,0.16,0.82,0.00,23.34,27.98,31.11,4.79,26.35,1021.50,2028.00,3123.57,3075.44,3331.46,350.06,349.05,6.65,0000 0000 0000 0000 000000
2014-11-27 00:07:51,0.16,0.82,0.00,23.34,27.99,31.12,4.79,26.40,1021.50,2028.00,3121.61,3074.04,3329.87,350.37,349.11,6.68,0000 0000 0000 0000 000000
2014-11-27 00:12:52,0.15,0.83,0.00,23.35,28.00,31.13,4.74,26.36,1021.50,2028.00,3119.76,3072.71,3328.48,349.79,348.68,6.71,0000 0000 0000 0000 000000
2014-11-27 00:17:54,0.15,0.83,0.00,23.39,28.00,31.15,4.82,26.43,1021.51,2028.00,3117.81,3071.44,3327.13,349.89,348.63,6.74,0000 0000 0000 0000 000000
2014-11-27 00:22:55,0.16,0.84,0.00,23.38,28.00,31.13,4.77,26.46,1021.50,2028.00,3115.76,3070.14,3325.69,349.58,348.70,6.77,0000 0000 0000 0000 000000
2014-11-27 00:27:57,0.18,0.84,0.00,23.38,28.00,31.15,4.84,26.40,1021.50,2028.00,3113.63,3068.66,3324.06,350.63,349.44,6.80,0000 0000 0000 0000 000000
2014-11-27 00:32:58,0.17,0.85,0.00,23.39,28.00,31.15,4.83,26.52,1021.50,2028.00,3111.59,3067.17,3322.45,349.96,348.86,6.83,0000 0000 0000 0000 000000
2014-11-27 00:37:59,0.20,0.85,0.00,23.39,28.02,31.18,4.77,26.43,1021.50,2028.00,3109.36,3065.61,3320.72,349.69,348.51,6.86,0000 0000 0000 0000 000000
2014-11-27 00:43:01,0.16,0.86,0.00,23.38,28.02,31.19,4.83,26.48,1021.51,2028.00,3107.15,3064.05,3319.01,350.27,349.09,6.89,0000 0000 0000 0000 000000
2014-11-27 00:48:02,0.18,0.86,0.00,23.38,28.02,31.19,4.79,26.46,1021.50,2028.00,3105.17,3062.65,3317.48,349.72,348.63,6.92,0000 0000 0000 0000 000000
2014-11-27 00:53:04,0.16,0.87,0.00,23.38,28.02,31.19,4.81,26.37,1021.50,2027.99,3103.03,3061.24,3315.89,349.73,348.60,6.95,0000 0000 0000 0000 000000
2014-11-27 00:58:05,0.15,0.87,0.00,23.37,28.02,31.17,4.82,26.49,1021.51,2027.99,3101.17,3059.84,3314.50,349.98,348.86,6.98,0000 0000 0000 0000 000000
2014-11-27 01:03:06,0.16,0.88,0.00,23.40,28.03,31.18,4.79,26.44,1021.54,2027.99,3099.25,3058.54,3312.95,349.80,348.75,7.01,0000 0000 0000 0000 000000
2014-11-27 01:08:07,0.15,0.88,0.00,23.41,28.04,31.19,4.84,26.43,1021.52,2027.99,3097.33,3057.14,3311.51,350.14,348.80,7.03,0000 0000 0000 0000 000000
2014-11-27 01:13:08,0.16,0.89,0.00,23.40,28.05,31.19,4.73,26.40,1021.51,2027.99,3095.43,3055.84,3310.08,349.34,348.23,7.06,0000 0000 0000 0000 000000
2014-11-27 01:18:09,0.17,0.89,0.00,23.43,28.05,31.23,4.78,26.48,1021.50,2027.99,3093.50,3054.49,3308.62,349.50,348.21,7.09,0000 0000 0000 0000 000000
2014-11-27 01:23:10,0.15,0.90,0.00,23.41,28.05,31.20,4.85,26.48,1021.50,2027.98,3091.62,3053.14,3307.13,350.04,348.89,7.12,0000 0000 0000 0000 000000
2014-11-27 01:28:11,0.17,0.90,0.00,23.40,28.05,31.23,4.83,26.50,1021.50,2027.98,3089.74,3051.76,3305.62,349.94,348.83,7.15,0000 0000 0000 0000 000000
2014-11-27 01:33:13,0.15,0.91,0.00,23.40,28.05,31.22,4.73,26.37,1021.50,2027.96,3087.78,3050.36,3304.05,350.08,348.98,7.18,0000 0000 0000 0000 000000
2014-11-27 01:38:14,0.16,0.91,0.00,23.40,28.07,31.21,4.87,26.50,1021.50,2027.95,3085.83,3048.95,3302.64,350.45,349.45,7.21,0000 0000 0000 0000 000000
2014-11-27 01:43:15,0.17,0.92,0.00,23.40,28.07,31.22,4.80,26.43,1021.51,2027.94,3083.85,3047.66,3301.04,350.29,349.00,7.24,0000 0000 0000 0000 000000
2014-11-27 01:48:16,0.13,0.92,0.00,23.38,28.07,31.23,4.83,26.48,1021.53,2027.83,3081.90,3046.25,3299.59,349.81,349.00,7.27,0000 0000 0000 0000 000000
2014-11-27 01:53:18,0.17,0.93,0.00,23.38,28.07,31.22,4.89,26.51,1021.77,2027.83,3079.91,3044.87,3298.16,350.52,349.45,7.30,0000 0000 0000 0000 000000
2014-11-27 01:58:19,0.16,0.93,0.00,23.42,28.07,31.24,4.83,26.50,1021.98,2027.87,3078.07,3043.56,3296.72,349.90,348.93,7.33,0000 0000 0000 0000 000000
2014-11-27 02:03:20,0.12,0.94,0.00,23.41,28.07,31.25,4.81,26.42,1021.98,2027.65,3076.01,3042.05,3295.13,350.33,349.47,7.36,0000 0000 0000 0000 000000
2014-11-27 02:08:22,0.17,0.94,0.00,23.44,28.08,31.24,4.80,26.52,1021.99,2027.52,3074.03,3040.69,3293.62,349.51,348.56,7.39,0000 0000 0000 0000 000000
2014-11-27 02:13:23,0.14,0.94,0.00,23.41,28.10,31.24,4.81,26.43,1022.00,2027.54,3072.01,3039.41,3292.20,350.38,349.29,7.42,0000 0000 0000 0000 000000
2014-11-27 02:18:24,0.14,0.95,0.00,23.44,28.10,31.22,4.84,26.40,1022.01,2027.33,3070.14,3037.82,3290.63,350.06,349.00,7.44,0000 0000 0000 0000 000000
2014-11-27 02:23:26,0.14,0.95,0.00,23.46,28.10,31.25,4.83,26.39,1022.06,2027.12,3068.12,3036.43,3288.98,350.13,349.34,7.47,0000 0000 0000 0000 000000
2014-11-27 02:28:27,0.16,0.96,0.00,23.46,28.10,31.24,4.83,26.54,1022.08,2027.11,3066.23,3035.05,3287.57,350.02,349.15,7.50,0000 0000 0000 0000 000000
2014-11-27 02:33:28,0.15,0.96,0.00,23.42,28.10,31.25,4.76,26.49,1022.27,2027.07,3064.27,3033.67,3286.11,350.07,349.19,7.53,0000 0000 0000 0000 000000
2014-11-27 02:38:29,0.18,0.97,0.00,23.44,28.10,31.26,4.77,26.57,1022.23,2027.10,3062.29,3032.35,3284.67,349.55,348.70,7.56,0000 0000 0000 0000 000000
2014-11-27 02:43:30,0.15,0.97,0.00,23.45,28.11,31.25,4.81,26.43,1022.46,2027.03,3060.38,3030.92,3283.06,349.96,349.22,7.59,0000 0000 0000 0000 000000
2014-11-27 02:48:32,0.18,0.98,0.00,23.42,28.12,31.26,4.81,26.48,1022.48,2027.08,3058.46,3029.54,3281.57,350.01,349.25,7.62,0000 0000 0000 0000 000000
2014-11-27 02:53:33,0.13,0.98,0.00,23.41,28.12,31.28,4.85,26.36,1022.49,2027.04,3056.60,3028.22,3280.14,350.20,349.42,7.65,0000 0000 0000 0000 000000
2014-11-27 02:58:34,0.18,0.99,0.00,23.39,28.12,31.27,4.78,26.44,1022.50,2027.06,3054.66,3026.84,3278.64,350.18,349.49,7.68,0000 0000 0000 0000 000000
2014-11-27 03:03:35,0.15,0.99,0.00,23.40,28.12,31.27,4.80,26.46,1022.49,2027.05,3052.70,3025.48,3277.11,350.59,349.66,7.71,0000 0000 0000 0000 000000
2014-11-27 03:08:37,0.17,1.00,0.00,23.42,28.12,31.27,4.83,26.48,1022.49,2027.04,3050.66,3024.08,3275.64,349.98,349.01,7.74,0000 0000 0000 0000 000000
2014-11-27 03:13:38,0.18,1.00,0.00,23.41,28.12,31.28,4.82,26.46,1022.51,2027.03,3048.49,3022.60,3274.03,349.67,348.92,7.77,0000 0000 0000 0000 000000
2014-11-27 03:18:39,0.25,1.01,0.00,23.37,28.12,31.30,4.81,26.43,1022.49,2027.02,3045.58,3020.53,3271.97,350.17,349.42,7.80,0000 0000 0000 0000 000000
2014-11-27 03:23:40,0.20,1.01,0.00,23.38,28.12,31.32,4.83,26.42,1022.48,2027.02,3043.10,3018.72,3269.85,350.09,349.33,7.83,0000 0000 0000 0000 000000
2014-11-27 03:28:41,0.15,1.02,0.00,23.38,28.12,31.30,4.85,26.52,1022.49,2027.02,3041.25,3017.45,3268.39,349.77,348.93,7.85,0000 0000 0000 0000 000000
2014-11-27 03:33:43,0.17,1.02,0.00,23.38,28.12,31.30,4.82,26.46,1022.50,2027.01,3039.23,3015.97,3266.88,350.70,349.77,7.88,0000 0000 0000 0000 000000
2014-11-27 03:38:44,0.17,1.03,0.00,23.39,28.12,31.29,4.83,26.58,1022.49,2027.01,3037.14,3014.61,3265.45,350.52,349.74,7.91,0000 0000 0000 0000 000000
2014-11-27 03:43:45,0.15,1.03,0.00,23.40,28.12,31.29,4.78,26.53,1022.49,2027.01,3035.25,3013.27,3264.00,350.06,349.46,7.94,0000 0000 0000 0000 000000
2014-11-27 03:48:47,0.18,1.04,0.00,23.36,28.12,31.29,4.82,26.36,1022.54,2027.05,3033.18,3011.90,3262.67,350.50,349.59,7.97,0000 0000 0000 0000 000000
2014-11-27 03:53:48,0.18,1.04,0.00,23.36,28.12,31.31,4.80,26.53,1022.55,2027.03,3031.09,3010.37,3260.97,350.02,349.21,8.00,0000 0000 0000 0000 000000
2014-11-27 03:58:50,0.21,1.05,0.00,23.34,28.12,31.28,4.82,26.49,1022.52,2027.03,3028.68,3008.72,3259.24,349.92,349.23,8.03,0000 0000 0000 0000 000000
2014-11-27 04:03:51,0.24,1.06,0.00,23.34,28.12,31.28,4.82,26.52,1022.54,2027.02,3025.82,3006.85,3257.06,349.66,348.97,8.06,0000 0000 0000 0000 000000
2014-11-27 04:08:52,0.26,1.06,0.00,23.35,28.12,31.31,4.88,26.53,1022.53,2027.01,3022.66,3004.75,3254.80,350.32,349.74,8.09,0000 0000 0000 0000 000000
2014-11-27 04:13:54,0.25,1.07,0.00,23.32,28.12,31.30,4.81,26.53,1022.63,2027.01,3019.57,3002.64,3252.55,349.56,348.93,8.12,0000 0000 0000 0000 000000
2014-11-27 04:18:55,0.24,1.08,0.00,23.32,28.12,31.28,4.82,26.57,1022.52,2027.01,3016.75,3000.69,3250.40,350.25,349.47,8.15,0000 0000 0000 0000 000000
2014-11-27 04:23:56,0.25,1.09,0.00,23.32,28.12,31.28,4.83,26.43,1022.58,2027.00,3013.79,2998.66,3248.26,349.72,349.11,8.18,0000 0000 0000 0000 000000
2014-11-27 04:28:58,0.25,1.09,0.00,23.31,28.12,31.28,4.83,26.50,1022.83,2027.01,3010.80,2996.63,3246.10,350.09,349.72,8.21,0000 0000 0000 0000 000000
2014-11-27 04:33:59,0.21,1.10,0.00,23.28,28.12,31.28,4.84,26.40,1022.71,2027.01,3008.16,2994.76,3244.13,350.17,349.64,8.24,0000 0000 0000 0000 000000
2014-11-27 04:39:00,0.23,1.11,0.00,23.28,28.12,31.25,4.81,26.60,1022.52,2027.00,3005.63,2992.93,3242.18,349.59,348.91,8.26,0000 0000 0000 0000 000000
2014-11-27 04:44:02,0.20,1.11,0.00,23.27,28.10,31.27,4.87,26.55,1022.82,2027.00,3003.13,2991.27,3240.34,350.15,349.63,8.29,0000 0000 0000 0000 000000
2014-11-27 04:49:03,0.21,1.12,0.00,23.26,28.10,31.26,4.82,26.55,1022.94,2027.00,3000.67,2989.52,3238.51,350.14,349.68,8.32,0000 0000 0000 0000 000000
2014-11-27 04:54:04,0.21,1.13,0.00,23.23,28.10,31.24,4.83,26.60,1022.95,2027.00,2998.27,2987.86,3236.67,349.68,349.23,8.35,0000 0000 0000 0000 000000
2014-11-27 04:59:05,0.21,1.13,0.00,23.23,28.10,31.24,4.77,26.50,1022.95,2027.00,2995.73,2986.07,3234.77,349.79,349.28,8.38,0000 0000 0000 0000 000000
2014-11-27 05:04:06,0.22,1.14,0.00,23.23,28.10,31.23,4.85,26.49,1022.95,2027.02,2993.19,2984.39,3232.90,350.18,349.76,8.41,0000 0000 0000 0000 000000
2014-11-27 05:09:08,0.22,1.15,0.00,23.21,28.09,31.23,4.78,26.47,1022.94,2027.00,2990.62,2982.59,3231.00,349.15,348.90,8.44,0000 0000 0000 0000 000000
2014-11-27 05:14:09,0.23,1.15,0.00,23.21,28.08,31.25,4.85,26.51,1022.94,2027.01,2987.99,2980.74,3228.98,350.50,350.10,8.47,0000 0000 0000 0000 000000
2014-11-27 05:19:10,0.28,1.16,0.00,23.20,28.07,31.21,4.87,26.51,1022.82,2027.02,2984.90,2978.51,3226.59,351.12,350.65,8.50,0000 0000 0000 0000 000000
2014-11-27 05:24:11,0.29,1.17,0.00,23.19,28.07,31.22,4.84,26.52,1022.79,2027.03,2981.60,2976.20,3224.13,350.31,349.83,8.53,0000 0000 0000 0000 000000
2014-11-27 05:29:13,0.27,1.18,0.00,23.19,28.07,31.19,4.79,26.49,1022.66,2027.03,2978.47,2973.92,3221.74,350.32,350.01,8.56,0000 0000 0000 0000 000000
2014-11-27 05:34:14,0.24,1.19,0.00,23.16,28.05,31.17,4.84,26.53,1022.84,2027.03,2975.72,2971.97,3219.66,350.42,349.99,8.59,0000 0000 0000 0000 000000
2014-11-27 05:39:15,0.22,1.19,0.00,23.15,28.05,31.16,4.86,26.67,1022.90,2027.01,2973.09,2970.17,3217.72,350.80,350.57,8.62,0000 0000 0000 0000 000000
2014-11-27 05:44:16,0.20,1.20,0.00,23.14,28.05,31.16,4.81,26.46,1022.91,2027.04,2970.67,2968.53,3215.93,350.13,349.97,8.65,0000 0000 0000 0000 000000
2014-11-27 05:49:18,0.22,1.20,0.00,23.14,28.03,31.16,4.84,26.43,1022.96,2027.12,2968.36,2966.83,3214.22,350.37,350.14,8.67,0000 0000 0000 0000 000000
2014-11-27 05:54:19,0.20,1.21,0.00,23.13,28.02,31.14,4.89,26.58,1022.96,2027.16,2965.97,2965.19,3212.39,350.21,349.86,8.70,0000 0000 0000 0000 000000
2014-11-27 05:59:20,0.24,1.22,0.00,23.10,28.02,31.12,4.91,26.55,1022.96,2027.31,2963.66,2963.58,3210.64,350.40,350.10,8.73,0000 0000 0000 0000 000000
2014-11-27 06:04:21,0.23,1.22,0.00,23.09,28.01,31.12,4.84,26.50,1023.03,2027.39,2961.26,2961.85,3208.80,349.30,349.07,8.76,0000 0000 0000 0000 000000
2014-11-27 06:09:22,0.20,1.23,0.00,23.08,28.00,31.13,4.85,26.42,1023.00,2027.36,2958.88,2960.22,3206.96,350.41,350.18,8.79,0000 0000 0000 0000 000000
2014-11-27 06:14:24,0.22,1.24,0.00,23.09,28.00,31.12,4.85,26.48,1022.98,2027.44,2956.47,2958.48,3205.18,350.47,350.23,8.82,0000 0000 0000 0000 000000
2014-11-27 06:19:25,0.32,1.24,0.00,23.08,27.99,31.11,4.80,26.54,1022.98,2027.63,2953.51,2956.32,3202.90,349.81,349.58,8.85,0000 0000 0000 0000 000000
2014-11-27 06:24:26,0.48,1.26,0.00,23.10,27.98,31.08,4.86,26.50,1022.97,2027.65,2948.42,2952.57,3198.92,350.53,350.13,8.88,0000 0000 0000 0000 000000
2014-11-27 06:29:27,1.62,1.29,0.00,23.08,27.97,31.09,4.85,26.57,1022.97,2027.79,2935.11,2942.54,3188.25,350.32,350.12,8.91,0000 0000 0000 0000 000000
2014-11-27 06:34:28,0.92,1.33,0.00,23.07,27.97,31.08,4.82,26.56,1022.97,2027.75,2922.37,2932.79,3177.96,350.07,349.97,8.94,0000 0000 0000 0000 000000
2014-11-27 06:39:29,1.17,1.35,0.00,23.06,27.95,31.10,4.86,26.77,1022.99,2027.67,2911.56,2924.49,3169.19,350.46,350.25,8.97,0000 0000 0000 0000 000000
2014-11-27 06:44:31,2.43,1.42,0.00,23.07,27.95,31.06,4.91,26.57,1022.99,2027.82,2888.62,2906.70,3150.42,350.32,350.03,9.00,0000 0000 0000 0000 000000
2014-11-27 06:49:32,1.99,1.48,0.00,23.06,27.95,31.06,4.94,26.51,1022.98,2027.85,2867.13,2890.09,3133.00,350.14,350.00,9.03,0000 0000 0000 0000 000000
2014-11-27 06:54:33,1.79,1.54,0.00,23.06,27.93,31.04,4.86,26.62,1022.98,2027.81,2848.01,2875.81,3117.81,350.41,350.20,9.06,0000 0000 0000 0000 000000
2014-11-27 06:59:35,0.74,1.57,1.33,23.04,27.92,31.05,4.84,26.60,1023.00,2027.85,2838.03,2868.37,3109.88,349.75,349.58,9.09,0000 0000 0000 0000 000000
2014-11-27 07:04:36,0.40,1.58,2.00,23.04,27.92,31.04,4.85,26.46,1023.02,2027.89,2833.16,2864.69,3105.94,349.89,349.75,9.11,0000 0000 0000 0000 000000
2014-11-27 07:09:38,0.39,1.60,2.00,23.02,27.91,31.03,4.84,26.50,1023.05,2027.96,2829.30,2861.82,3102.83,349.89,349.81,9.14,0000 0000 0000 0000 000000
2014-11-27 07:14:39,0.40,1.61,2.00,23.02,27.90,31.04,4.85,26.60,1023.09,2027.96,2824.98,2858.65,3099.46,349.97,349.84,9.17,0000 0000 0000 0000 000000
2014-11-27 07:19:40,0.24,1.62,2.00,23.03,27.90,31.03,4.82,26.64,1023.00,2027.97,2822.17,2856.60,3097.30,349.70,349.55,9.20,0000 0000 0000 0000 000000
2014-11-27 07:24:41,0.15,1.62,2.00,23.03,27.90,31.00,4.89,26.64,1023.01,2027.97,2820.34,2855.33,3095.93,349.70,349.68,9.23,0000 0000 0000 0000 000000
2014-11-27 07:29:42,0.17,1.63,0.60,23.01,27.88,30.99,4.83,26.63,1023.07,2027.97,2818.67,2854.15,3094.63,349.74,349.75,9.26,0000 0000 0000 0000 000000
2014-11-27 07:34:44,0.18,1.63,0.00,23.02,27.87,31.01,4.82,26.52,1023.05,2027.99,2816.84,2852.80,3093.23,350.18,349.99,9.29,0000 0000 0000 0000 000000
2014-11-27 07:39:45,0.25,1.64,0.00,23.01,27.87,31.00,4.86,26.73,1023.34,2027.97,2814.37,2851.02,3091.27,350.37,350.42,9.32,0000 0000 0000 0000 000000
2014-11-27 07:44:46,0.26,1.65,0.00,23.00,27.87,31.00,4.86,26.59,1023.30,2027.99,2811.62,2848.99,3089.11,349.95,349.69,9.35,0000 0000 0000 0000 000000
2014-11-27 07:49:48,0.24,1.65,0.00,23.00,27.86,30.99,4.88,26.70,1023.35,2027.98,2809.10,2847.10,3087.18,350.07,350.12,9.38,0000 0000 0000 0000 000000
2014-11-27 07:54:48,0.31,1.66,0.00,22.98,27.85,30.96,4.82,26.58,1023.39,2027.97,2806.09,2844.93,3084.82,350.19,350.21,9.41,0000 0000 0000 0000 000000
2014-11-27 07:59:49,0.32,1.67,0.00,22.97,27.85,30.98,4.82,26.72,1023.43,2027.99,2802.72,2842.49,3082.25,350.01,350.07,9.44,0000 0000 0000 0000 000000
2014-11-27 08:04:51,0.35,1.68,0.00,22.99,27.85,30.99,4.82,26.63,1023.44,2027.99,2799.26,2839.93,3079.52,349.89,349.95,9.47,0000 0000 0000 0000 000000
2014-11-27 08:09:52,0.38,1.69,0.00,22.99,27.85,30.95,4.88,26.58,1023.45,2027.99,2795.45,2837.12,3076.52,350.08,350.14,9.49,0000 0000 0000 0000 000000
2014-11-27 08:14:53,0.48,1.70,0.00,22.99,27.84,30.94,4.78,26.64,1023.45,2027.99,2790.82,2833.74,3072.91,349.03,349.07,9.52,0000 0000 0000 0000 000000
2014-11-27 08:19:54,0.67,1.72,0.00,22.98,27.82,30.95,4.86,26.80,1023.45,2027.99,2784.50,2829.05,3068.03,350.46,350.46,9.55,0000 0000 0000 0000 000000
2014-11-27 08:24:56,0.59,1.74,0.00,22.97,27.82,30.94,4.80,26.78,1023.45,2027.99,2778.22,2824.43,3063.12,349.99,350.10,9.58,0000 0000 0000 0000 000000
2014-11-27 08:29:57,0.59,1.76,0.00,22.98,27.82,30.96,4.85,26.73,1023.46,2027.99,2772.29,2819.93,3058.38,349.38,349.75,9.61,0000 0000 0000 0000 000000
2014-11-27 08:34:58,0.50,1.77,0.00,22.97,27.82,30.93,4.81,26.73,1023.46,2027.99,2766.94,2816.04,3054.17,349.88,350.08,9.64,0000 0000 0000 0000 000000
2014-11-27 08:39:59,0.85,1.79,0.00,23.00,27.82,30.94,4.79,26.64,1023.47,2027.99,2759.51,2810.69,3048.37,350.04,350.08,9.67,0000 0000 0000 0000 000000
2014-11-27 08:45:00,0.84,1.82,0.00,23.01,27.81,30.93,4.89,26.60,1023.47,2027.99,2750.77,2804.17,3041.31,350.26,350.35,9.70,0000 0000 0000 0000 000000
2014-11-27 08:50:02,0.94,1.85,0.00,23.01,27.81,30.92,4.88,26.68,1023.50,2027.99,2741.67,2797.42,3033.89,349.87,349.90,9.73,0000 0000 0000 0000 000000
2014-11-27 08:55:03,1.18,1.88,0.00,23.00,27.80,30.93,4.82,26.77,1023.74,2027.99,2730.70,2789.32,3025.11,349.85,350.03,9.76,0000 0000 0000 0000 000000
2014-11-27 09:00:04,1.16,1.91,0.77,22.98,27.80,30.92,4.85,26.75,1023.86,2027.99,2719.02,2780.92,3015.90,350.05,350.17,9.79,0000 0000 0000 0000 000000
2014-11-27 09:05:05,0.70,1.94,1.00,22.99,27.80,30.92,4.85,26.73,1023.94,2027.99,2710.48,2774.78,3009.21,350.08,350.19,9.82,0000 0000 0000 0000 000000
2014-11-27 09:10:06,0.28,1.95,1.00,23.02,27.80,30.94,4.81,26.69,1023.94,2027.99,2707.25,2772.37,3006.82,349.83,349.90,9.85,0000 0000 0000 0000 000000
2014-11-27 09:15:07,0.30,1.96,1.00,23.00,27.80,30.91,4.81,26.78,1023.94,2027.99,2704.37,2770.25,3004.59,349.78,350.11,9.88,0000 0000 0000 0000 000000
2014-11-27 09:20:08,0.32,1.97,1.00,23.02,27.80,30.91,4.79,26.70,1023.94,2027.99,2701.24,2767.99,3002.14,349.23,349.35,9.90,0000 0000 0000 0000 000000
2014-11-27 09:25:09,0.30,1.98,1.00,23.04,27.80,30.91,4.89,26.72,1023.95,2027.99,2698.16,2765.73,2999.82,350.41,350.49,9.93,0000 0000 0000 0000 000000
2014-11-27 09:30:11,0.41,1.99,0.23,23.03,27.80,30.91,4.85,26.68,1023.96,2027.99,2694.55,2763.13,2997.00,349.99,350.17,9.96,0000 0000 0000 0000 000000
2014-11-27 09:35:12,0.54,2.00,0.00,23.04,27.80,30.93,4.81,26.76,1024.01,2027.99,2689.42,2759.37,2992.88,349.67,349.73,9.99,0000 0000 0000 0000 000000
2014-11-27 09:40:13,0.37,2.02,0.00,23.03,27.80,30.94,4.86,26.77,1023.95,2027.99,2685.56,2756.46,2989.73,349.98,350.14,10.02,0000 0000 0000 0000 000000
2014-11-27 09:45:14,0.40,2.03,0.00,23.03,27.80,30.92,4.90,26.76,1023.94,2027.99,2681.86,2753.67,2986.81,350.12,350.33,10.05,0000 0000 0000 0000 000000
2014-11-27 09:50:15,0.55,2.04,0.00,23.02,27.80,30.94,4.89,26.77,1023.95,2027.99,2676.86,2750.11,2982.87,349.99,350.26,10.08,0000 0000 0000 0000 000000
2014-11-27 09:55:16,0.62,2.06,0.00,23.01,27.80,30.91,4.89,26.82,1023.94,2027.99,2671.04,2745.84,2978.24,349.75,349.88,10.11,0000 0000 0000 0000 000000
2014-11-27 10:00:17,0.68,2.08,0.00,23.03,27.80,30.93,4.87,26.68,1023.95,2027.99,2664.61,2741.12,2973.06,350.14,350.15,10.14,0000 0000 0000 0000 000000
2014-11-27 10:05:18,0.55,2.10,0.00,23.06,27.80,30.93,4.83,26.73,1023.96,2027.99,2658.95,2736.92,2968.49,349.51,349.61,10.17,0000 0000 0000 0000 000000
2014-11-27 10:10:19,0.40,2.11,0.00,23.06,27.80,30.93,4.81,26.73,1023.95,2027.99,2654.88,2733.94,2965.33,349.57,349.75,10.20,0000 0000 0000 0000 000000
2014-11-27 10:15:20,0.37,2.12,0.00,23.07,27.80,30.89,4.87,26.71,1023.96,2027.99,2651.17,2731.24,2962.41,350.26,350.34,10.23,0000 0000 0000 0000 000000
2014-11-27 10:20:22,0.39,2.14,0.00,23.07,27.80,30.90,4.94,26.88,1023.95,2027.99,2647.42,2728.52,2959.50,350.40,350.39,10.26,0000 0000 0000 0000 000000
2014-11-27 10:25:23,0.39,2.15,0.00,23.06,27.80,30.91,4.76,26.74,1023.95,2027.99,2643.63,2725.79,2956.59,349.44,349.56,10.29,0000 0000 0000 0000 000000
2014-11-27 10:30:24,0.40,2.16,0.00,23.07,27.80,30.93,4.84,26.79,1023.95,2027.99,2639.83,2723.06,2953.66,350.44,350.49,10.31,0000 0000 0000 0000 000000
2014-11-27 10:35:25,0.38,2.17,0.00,23.05,27.80,30.92,4.80,26.73,1023.95,2027.99,2636.11,2720.46,2950.85,349.70,349.70,10.34,0000 0000 0000 0000 000000
2014-11-27 10:40:26,0.56,2.19,0.00,23.07,27.80,30.94,4.82,26.82,1023.96,2027.99,2631.16,2716.87,2946.97,349.92,350.08,10.37,0000 0000 0000 0000 000000
2014-11-27 10:45:27,0.59,2.20,0.00,23.07,27.80,30.93,4.82,26.70,1023.96,2027.99,2625.84,2712.91,2942.66,350.46,350.58,10.40,0000 0000 0000 0000 000000
2014-11-27 10:50:28,0.78,2.22,0.00,23.06,27.80,30.92,4.75,26.64,1023.94,2027.99,2619.11,2707.90,2936.96,349.26,349.48,10.43,0000 0000 0000 0000 000000
2014-11-27 10:55:29,0.90,2.25,0.00,23.08,27.80,30.94,4.82,26.69,1023.94,2027.99,2610.68,2701.88,2930.09,349.59,349.68,10.46,0000 0000 0000 0000 000000
2014-11-27 11:00:30,0.41,2.27,0.83,23.08,27.80,30.94,4.84,26.72,1023.95,2027.99,2605.72,2698.46,2926.27,350.24,350.29,10.49,0000 0000 0000 0000 000000
2014-11-27 11:05:32,0.43,2.28,1.00,23.09,27.80,30.95,4.79,26.73,1023.95,2027.99,2601.93,2695.75,2923.34,349.82,349.86,10.52,0000 0000 0000 0000 000000
2014-11-27 11:10:33,0.55,2.29,1.00,23.10,27.80,30.94,4.80,26.66,1023.98,2027.99,2596.71,2692.08,2919.18,349.97,350.11,10.55,0000 0000 0000 0000 000000
2014-11-27 11:15:34,0.53,2.31,1.00,23.11,27.80,30.92,4.84,26.68,1023.96,2027.99,2591.57,2688.58,2915.19,349.87,349.92,10.58,0000 0000 0000 0000 000000
2014-11-27 11:20:35,0.49,2.32,1.00,23.11,27.80,30.95,4.87,26.73,1023.96,2027.99,2586.82,2685.39,2911.57,349.58,349.76,10.61,0000 0000 0000 0000 000000
2014-11-27 11:25:36,0.38,2.34,1.00,23.11,27.81,30.94,4.84,26.76,1023.95,2027.99,2582.84,2682.58,2908.41,350.08,349.99,10.64,0000 0000 0000 0000 000000
2014-11-27 11:30:37,0.29,2.35,0.13,23.14,27.81,30.93,4.84,26.85,1023.94,2027.99,2579.96,2680.60,2906.28,349.75,349.85,10.67,0000 0000 0000 0000 000000
2014-11-27 11:35:38,0.28,2.35,0.00,23.14,27.82,30.93,4.85,26.90,1023.94,2027.99,2577.36,2678.69,2904.15,350.03,350.06,10.70,0000 0000 0000 0000 000000
2014-11-27 11:40:39,0.22,2.36,0.00,23.12,27.82,30.94,4.88,26.83,1023.94,2027.99,2574.99,2677.03,2902.40,350.47,350.47,10.72,0000 0000 0000 0000 000000
2014-11-27 11:45:40,0.19,2.37,0.00,23.13,27.82,30.96,4.84,26.77,1023.97,2027.99,2573.22,2675.68,2901.11,350.26,350.40,10.75,0000 0000 0000 0000 000000
2014-11-27 11:50:41,0.19,2.37,0.00,23.15,27.82,30.96,4.76,26.74,1023.98,2027.99,2571.55,2674.48,2899.74,349.63,349.66,10.78,0000 0000 0000 0000 000000
2014-11-27 11:55:43,0.19,2.38,0.00,23.14,27.82,30.96,4.83,26.74,1024.26,2027.99,2569.67,2673.09,2898.30,350.59,350.74,10.81,0000 0000 0000 0000 000000
2014-11-27 12:00:44,0.22,2.38,0.00,23.14,27.82,30.95,4.77,26.71,1024.35,2027.99,2567.76,2671.71,2896.78,349.59,349.77,10.84,0000 0000 0000 0000 000000
2014-11-27 12:05:45,0.19,2.39,0.00,23.15,27.82,30.99,4.82,26.72,1024.31,2027.99,2565.79,2670.33,2895.32,350.30,350.58,10.87,0000 0000 0000 0000 000000
2014-11-27 12:10:46,0.22,2.40,0.00,23.19,27.82,30.96,4.82,26.85,1024.39,2027.99,2563.88,2668.87,2893.75,349.92,350.06,10.90,0000 0000 0000 0000 000000
2014-11-27 12:15:47,0.19,2.40,0.00,23.17,27.82,30.93,4.89,26.79,1024.41,2027.99,2561.97,2667.56,2892.29,350.22,350.17,10.93,0000 0000 0000 0000 000000
2014-11-27 12:20:48,0.25,2.41,0.00,23.15,27.83,30.96,4.79,26.71,1024.42,2027.99,2559.87,2665.98,2890.54,350.05,350.39,10.96,0000 0000 0000 0000 000000
2014-11-27 12:25:49,0.34,2.42,0.00,23.18,27.83,30.97,4.82,26.79,1024.25,2027.99,2556.87,2663.74,2888.17,349.30,349.49,10.99,0000 0000 0000 0000 000000
2014-11-27 12:30:50,0.32,2.43,0.00,23.19,27.83,30.97,4.74,26.82,1024.02,2027.99,2553.78,2661.54,2885.81,349.78,349.93,11.02,0000 0000 0000 0000 000000
2014-11-27 12:35:52,0.33,2.44,0.00,23.20,27.84,30.98,4.89,26.77,1023.97,2027.99,2550.56,2659.30,2883.36,350.27,350.10,11.05,0000 0000 0000 0000 000000
2014-11-27 12:40:53,0.29,2.45,0.00,23.19,27.84,30.95,4.92,26.82,1023.97,2027.99,2547.90,2657.17,2881.19,350.43,350.40,11.08,0000 0000 0000 0000 000000
2014-11-27 12:45:55,0.21,2.46,0.00,23.21,27.85,30.98,4.79,26.76,1024.07,2027.99,2545.99,2655.69,2879.65,349.72,349.80,11.10,0000 0000 0000 0000 000000
2014-11-27 12:50:56,0.21,2.46,0.00,23.22,27.85,30.99,4.83,26.72,1024.23,2027.98,2544.00,2654.17,2878.19,350.11,350.19,11.13,0000 0000 0000 0000 000000
2014-11-27 12:55:57,0.23,2.47,0.00,23.22,27.85,30.99,4.81,26.74,1024.30,2027.99,2541.86,2652.70,2876.64,349.94,350.28,11.16,0000 0000 0000 0000 000000
2014-11-27 13:00:58,0.19,2.48,0.00,23.22,27.85,31.01,4.86,26.67,1024.34,2027.99,2539.97,2651.32,2875.14,349.72,349.86,11.19,0000 0000 0000 0000 000000
2014-11-27 13:05:59,0.20,2.48,0.00,23.22,27.85,31.01,4.85,26.70,1024.33,2027.99,2538.14,2649.95,2873.74,350.12,350.19,11.22,0000 0000 0000 0000 000000